| time (UTC) | temp F | wind direction | speed MPH | gust MPH | rain 1hr in | rain 24hr in | rain mn in | humidity % | barometer mb |
| 20260508014058 | 54 | 0 | 0.0 | 2.0 | 0.00 | 0.25 | 0.18 | 90 | 1014.8 |
| 20260508013559 | 54 | 0 | 0.0 | 3.0 | 0.00 | 0.25 | 0.18 | 90 | 1014.9 |
| 20260508013101 | 54 | 0 | 0.0 | 3.0 | 0.00 | 0.25 | 0.18 | 90 | 1014.6 |
| 20260508012558 | 54 | 0 | 1.0 | 3.0 | 0.00 | 0.25 | 0.18 | 90 | 1014.6 |
| 20260508012058 | 54 | 0 | 0.0 | 2.0 | 0.00 | 0.25 | 0.18 | 90 | 1014.3 |
| 20260508011612 | 54 | 0 | 0.0 | 2.0 | 0.00 | 0.25 | 0.18 | 90 | 1014.3 |
| 20260508011058 | 54 | 0 | 0.0 | 2.0 | 0.00 | 0.25 | 0.18 | 89 | 1014.2 |
| 20260508010558 | 55 | 0 | 0.0 | 2.0 | 0.00 | 0.25 | 0.18 | 89 | 1014.4 |
| 20260508005601 | 55 | 0 | 0.0 | 1.0 | 0.00 | 0.35 | 0.18 | 88 | 1014.2 |
| 20260508005058 | 55 | 0 | 0.0 | 1.0 | 0.00 | 0.35 | 0.18 | 88 | 1014.1 |
| 20260508004559 | 55 | 0 | 0.0 | 0.0 | 0.00 | 0.35 | 0.18 | 88 | 1014.1 |
| 20260508004059 | 55 | 0 | 0.0 | 0.0 | 0.00 | 0.35 | 0.18 | 88 | 1014.0 |
| 20260508003600 | 56 | 0 | 0.0 | 2.0 | 0.00 | 0.35 | 0.18 | 87 | 1013.9 |
| 20260508003059 | 56 | 0 | 0.0 | 2.0 | 0.00 | 0.35 | 0.18 | 87 | 1014.0 |
| 20260508002557 | 56 | 0 | 0.0 | 2.0 | 0.00 | 0.35 | 0.18 | 87 | 1014.0 |
| 20260508002057 | 56 | 0 | 0.0 | 2.0 | 0.00 | 0.35 | 0.18 | 87 | 1013.7 |
| 20260508001600 | 56 | 0 | 0.0 | 3.0 | 0.00 | 0.35 | 0.18 | 86 | 1013.7 |
| 20260508001058 | 57 | 0 | 0.0 | 4.0 | 0.00 | 0.35 | 0.18 | 86 | 1013.7 |
| 20260508000557 | 57 | 0 | 1.0 | 4.0 | 0.00 | 0.35 | 0.18 | 86 | 1013.5 |
| 20260508000057 | 57 | 0 | 0.0 | 4.0 | 0.00 | 0.35 | 0.18 | 86 | 1013.5 |
| 20260507235557 | 57 | 0 | 0.0 | 5.0 | 0.00 | 0.37 | 0.18 | 86 | 1013.5 |
| 20260507235057 | 57 | 163 | 2.0 | 5.0 | 0.00 | 0.37 | 0.18 | 86 | 1013.8 |
| 20260507234605 | 57 | 193 | 2.0 | 5.0 | 0.00 | 0.37 | 0.18 | 86 | 1013.7 |
| 20260507234101 | 57 | 152 | 2.0 | 5.0 | 0.00 | 0.37 | 0.18 | 86 | 1013.7 |
| 20260507233558 | 57 | 179 | 2.0 | 5.0 | 0.00 | 0.37 | 0.18 | 85 | 1013.7 |
| 20260507233106 | 58 | 196 | 2.0 | 5.0 | 0.00 | 0.37 | 0.18 | 85 | 1013.9 |
| 20260507232558 | 58 | 175 | 2.0 | 7.0 | 0.00 | 0.37 | 0.18 | 85 | 1013.7 |
| 20260507232057 | 58 | 171 | 4.0 | 7.0 | 0.00 | 0.37 | 0.18 | 85 | 1013.9 |
| 20260507231559 | 58 | 171 | 3.0 | 7.0 | 0.00 | 0.37 | 0.18 | 86 | 1013.7 |
| 20260507231101 | 58 | 175 | 4.0 | 7.0 | 0.00 | 0.37 | 0.18 | 85 | 1013.9 |
| 20260507230559 | 58 | 175 | 4.0 | 9.0 | 0.00 | 0.37 | 0.18 | 85 | 1013.7 |
| 20260507230111 | 58 | 178 | 5.0 | 9.0 | 0.00 | 0.37 | 0.18 | 85 | 1013.8 |
| 20260507225557 | 58 | 199 | 3.0 | 8.0 | 0.00 | 0.42 | 0.18 | 84 | 1013.7 |
| 20260507225057 | 58 | 148 | 4.0 | 8.0 | 0.00 | 0.42 | 0.18 | 84 | 1014.0 |
| 20260507224556 | 58 | 182 | 0.0 | 4.0 | 0.00 | 0.42 | 0.18 | 85 | 1014.1 |
| 20260507224057 | 58 | 201 | 1.0 | 5.0 | 0.00 | 0.42 | 0.18 | 85 | 1014.0 |
| 20260507223601 | 58 | 0 | 2.0 | 6.0 | 0.00 | 0.42 | 0.18 | 85 | 1014.0 |
| 20260507223059 | 58 | 172 | 3.0 | 6.0 | 0.00 | 0.42 | 0.18 | 84 | 1013.9 |
| 20260507222558 | 58 | 201 | 3.0 | 6.0 | 0.00 | 0.42 | 0.18 | 84 | 1013.9 |
| 20260507222059 | 58 | 188 | 2.0 | 8.0 | 0.00 | 0.42 | 0.18 | 83 | 1013.9 |
| 20260507221556 | 58 | 0 | 3.0 | 10.0 | 0.00 | 0.42 | 0.18 | 85 | 1013.9 |
| 20260507221101 | 58 | 164 | 5.0 | 10.0 | 0.00 | 0.42 | 0.18 | 85 | 1013.8 |
| 20260507220557 | 58 | 166 | 6.0 | 10.0 | 0.00 | 0.42 | 0.18 | 84 | 1013.7 |
| 20260507220059 | 58 | 159 | 3.0 | 9.0 | 0.00 | 0.42 | 0.18 | 85 | 1013.7 |
| 20260507215558 | 58 | 205 | 4.0 | 10.0 | 0.00 | 0.42 | 0.18 | 85 | 1013.7 |
| 20260507215057 | 58 | 157 | 4.0 | 10.0 | 0.00 | 0.42 | 0.18 | 87 | 1013.6 |
| 20260507214609 | 59 | 129 | 4.0 | 9.0 | 0.00 | 0.42 | 0.18 | 86 | 1013.6 |
| 20260507214057 | 58 | 182 | 2.0 | 6.0 | 0.00 | 0.42 | 0.18 | 88 | 1013.5 |
| 20260507213558 | 57 | 120 | 2.0 | 7.0 | 0.00 | 0.42 | 0.18 | 88 | 1013.6 |
| 20260507213058 | 57 | 189 | 3.0 | 7.0 | 0.00 | 0.42 | 0.18 | 87 | 1013.6 |
| 20260507212559 | 57 | 205 | 1.0 | 7.0 | 0.00 | 0.42 | 0.18 | 87 | 1013.6 |
| 20260507212058 | 57 | 161 | 3.0 | 7.0 | 0.00 | 0.42 | 0.18 | 87 | 1013.4 |
| 20260507211603 | 57 | 215 | 2.0 | 6.0 | 0.00 | 0.42 | 0.18 | 86 | 1013.5 |
| 20260507211056 | 58 | 152 | 1.0 | 7.0 | 0.00 | 0.42 | 0.18 | 86 | 1013.4 |
| 20260507210557 | 58 | 175 | 1.0 | 7.0 | 0.00 | 0.42 | 0.18 | 85 | 1013.4 |
| 20260507210104 | 58 | 187 | 3.0 | 7.0 | 0.00 | 0.42 | 0.18 | 84 | 1013.3 |
| 20260507205559 | 59 | 154 | 4.0 | 10.0 | 0.00 | 0.42 | 0.18 | 85 | 1013.2 |
| 20260507205059 | 59 | 165 | 4.0 | 10.0 | 0.00 | 0.42 | 0.18 | 84 | 1013.1 |
| 20260507204559 | 58 | 130 | 3.0 | 4.0 | 0.00 | 0.42 | 0.18 | 85 | 1013.3 |
| 20260507204059 | 57 | 82 | 2.0 | 4.0 | 0.00 | 0.42 | 0.18 | 85 | 1013.3 |
| 20260507203557 | 57 | 101 | 1.0 | 5.0 | 0.00 | 0.42 | 0.18 | 85 | 1013.3 |
| 20260507203103 | 57 | 101 | 1.0 | 6.0 | 0.00 | 0.42 | 0.18 | 86 | 1013.4 |
| 20260507202557 | 57 | 234 | 3.0 | 7.0 | 0.00 | 0.42 | 0.18 | 89 | 1013.2 |
| 20260507202101 | 57 | 139 | 3.0 | 7.0 | 0.00 | 0.42 | 0.18 | 89 | 1013.3 |
| 20260507201556 | 56 | 124 | 4.0 | 7.0 | 0.00 | 0.42 | 0.18 | 89 | 1013.4 |
| 20260507201100 | 56 | 173 | 3.0 | 5.0 | 0.00 | 0.42 | 0.18 | 90 | 1013.4 |
| 20260507200559 | 55 | 175 | 2.0 | 5.0 | 0.00 | 0.42 | 0.18 | 89 | 1013.5 |
| 20260507200057 | 55 | 0 | 2.0 | 5.0 | 0.00 | 0.42 | 0.18 | 89 | 1013.7 |
| 20260507195557 | 56 | 156 | 2.0 | 5.0 | 0.00 | 0.42 | 0.18 | 89 | 1013.7 |
| 20260507195059 | 56 | 139 | 1.0 | 3.0 | 0.00 | 0.42 | 0.18 | 89 | 1013.6 |
| 20260507194600 | 56 | 0 | 1.0 | 3.0 | 0.00 | 0.42 | 0.18 | 88 | 1013.7 |
| 20260507194100 | 56 | 0 | 0.0 | 3.0 | 0.00 | 0.42 | 0.18 | 89 | 1013.7 |
| 20260507193557 | 56 | 0 | 0.0 | 3.0 | 0.00 | 0.42 | 0.18 | 89 | 1013.7 |
| 20260507193058 | 56 | 0 | 0.0 | 3.0 | 0.00 | 0.42 | 0.18 | 89 | 1013.6 |
| 20260507192558 | 56 | 60 | 1.0 | 3.0 | 0.00 | 0.42 | 0.18 | 88 | 1013.5 |
| 20260507192057 | 56 | 0 | 0.0 | 3.0 | 0.00 | 0.42 | 0.18 | 88 | 1013.5 |
| 20260507191559 | 56 | 0 | 1.0 | 3.0 | 0.00 | 0.42 | 0.18 | 88 | 1013.5 |
| 20260507191058 | 56 | 0 | 1.0 | 3.0 | 0.00 | 0.42 | 0.18 | 88 | 1013.7 |
| 20260507190557 | 56 | 110 | 0.0 | 3.0 | 0.00 | 0.42 | 0.18 | 90 | 1013.7 |
| 20260507190057 | 56 | 18 | 1.0 | 3.0 | 0.00 | 0.42 | 0.18 | 89 | 1013.8 |
| 20260507185557 | 56 | 0 | 1.0 | 3.0 | 0.00 | 0.42 | 0.18 | 92 | 1013.8 |
| 20260507185057 | 56 | 0 | 0.0 | 3.0 | 0.00 | 0.42 | 0.18 | 93 | 1013.7 |
| 20260507184556 | 55 | 0 | 1.0 | 4.0 | 0.00 | 0.42 | 0.18 | 92 | 1013.5 |
| 20260507184057 | 55 | 58 | 2.0 | 4.0 | 0.00 | 0.42 | 0.18 | 94 | 1013.6 |
| 20260507183600 | 54 | 250 | 1.0 | 3.0 | 0.00 | 0.42 | 0.18 | 94 | 1013.9 |
| 20260507183056 | 54 | 91 | 0.0 | 3.0 | 0.00 | 0.42 | 0.18 | 94 | 1013.8 |
| 20260507182556 | 54 | 0 | 0.0 | 3.0 | 0.00 | 0.42 | 0.18 | 94 | 1014.0 |
| 20260507182056 | 53 | 355 | 0.0 | 4.0 | 0.00 | 0.42 | 0.18 | 94 | 1014.0 |
| 20260507181557 | 53 | 0 | 0.0 | 4.0 | 0.00 | 0.42 | 0.18 | 94 | 1014.0 |
| 20260507181057 | 53 | 331 | 0.0 | 3.0 | 0.00 | 0.42 | 0.18 | 94 | 1013.8 |
| 20260507180559 | 53 | 286 | 1.0 | 3.0 | 0.00 | 0.42 | 0.18 | 94 | 1013.9 |
| 20260507175557 | 53 | 0 | 0.0 | 2.0 | 0.00 | 0.42 | 0.18 | 94 | 1014.2 |
| 20260507175057 | 53 | 0 | 0.0 | 3.0 | 0.01 | 0.42 | 0.18 | 94 | 1014.2 |
| 20260507174608 | 53 | 0 | 0.0 | 4.0 | 0.01 | 0.42 | 0.18 | 94 | 1014.2 |
| 20260507174057 | 53 | 0 | 1.0 | 4.0 | 0.01 | 0.42 | 0.18 | 94 | 1014.2 |
| 20260507173557 | 53 | 254 | 0.0 | 3.0 | 0.01 | 0.42 | 0.18 | 94 | 1014.4 |
| 20260507173056 | 53 | 0 | 0.0 | 3.0 | 0.01 | 0.42 | 0.18 | 94 | 1014.2 |
| 20260507172557 | 53 | 281 | 0.0 | 6.0 | 0.01 | 0.42 | 0.18 | 94 | 1014.2 |
| 20260507172058 | 53 | 0 | 0.0 | 6.0 | 0.01 | 0.42 | 0.18 | 94 | 1014.3 |
| 20260507171610 | 53 | 236 | 1.0 | 6.0 | 0.01 | 0.42 | 0.18 | 94 | 1014.3 |
| 20260507171057 | 53 | 303 | 2.0 | 6.0 | 0.01 | 0.42 | 0.18 | 93 | 1014.3 |
| 20260507170557 | 53 | 281 | 1.0 | 4.0 | 0.01 | 0.42 | 0.18 | 94 | 1014.2 |
| 20260507170057 | 54 | 292 | 0.0 | 4.0 | 0.01 | 0.42 | 0.18 | 94 | 1014.2 |
| 20260507165557 | 54 | 0 | 1.0 | 5.0 | 0.01 | 0.42 | 0.18 | 94 | 1014.0 |
| 20260507165057 | 54 | 0 | 1.0 | 5.0 | 0.00 | 0.41 | 0.17 | 94 | 1014.0 |
| 20260507164600 | 54 | 302 | 1.0 | 5.0 | 0.00 | 0.41 | 0.17 | 95 | 1014.1 |
| 20260507164058 | 54 | 352 | 1.0 | 8.0 | 0.00 | 0.41 | 0.17 | 94 | 1013.9 |
| 20260507163557 | 54 | 321 | 1.0 | 8.0 | 0.00 | 0.41 | 0.17 | 94 | 1013.9 |
| 20260507163101 | 54 | 340 | 1.0 | 5.0 | 0.00 | 0.41 | 0.17 | 94 | 1013.9 |
| 20260507162558 | 54 | 0 | 0.0 | 5.0 | 0.00 | 0.41 | 0.17 | 94 | 1014.0 |
| 20260507162058 | 53 | 298 | 2.0 | 5.0 | 0.00 | 0.41 | 0.17 | 94 | 1013.9 |
| 20260507161602 | 54 | 5 | 0.0 | 3.0 | 0.00 | 0.41 | 0.17 | 94 | 1013.7 |
| 20260507161057 | 54 | 343 | 0.0 | 3.0 | 0.00 | 0.41 | 0.17 | 95 | 1013.6 |
| 20260507160557 | 54 | 0 | 0.0 | 3.0 | 0.00 | 0.41 | 0.17 | 95 | 1013.8 |
| 20260507160059 | 53 | 0 | 0.0 | 8.0 | 0.00 | 0.41 | 0.17 | 95 | 1013.8 |
| 20260507155557 | 53 | 254 | 2.0 | 8.0 | 0.00 | 0.45 | 0.17 | 94 | 1013.9 |
| 20260507155057 | 53 | 342 | 2.0 | 5.0 | 0.00 | 0.45 | 0.17 | 94 | 1013.8 |
| 20260507154557 | 53 | 325 | 0.0 | 5.0 | 0.00 | 0.45 | 0.17 | 94 | 1013.7 |
| 20260507154056 | 54 | 309 | 1.0 | 5.0 | 0.00 | 0.45 | 0.17 | 94 | 1013.7 |
| 20260507153557 | 54 | 0 | 2.0 | 6.0 | 0.01 | 0.45 | 0.17 | 94 | 1013.6 |
| 20260507153104 | 54 | 315 | 2.0 | 8.0 | 0.01 | 0.45 | 0.17 | 94 | 1013.5 |
| 20260507152557 | 54 | 317 | 1.0 | 8.0 | 0.01 | 0.45 | 0.17 | 94 | 1013.4 |
| 20260507152100 | 54 | 313 | 1.0 | 6.0 | 0.01 | 0.45 | 0.17 | 94 | 1013.6 |
| 20260507151558 | 54 | 315 | 1.0 | 6.0 | 0.01 | 0.45 | 0.17 | 94 | 1013.6 |
| 20260507151057 | 54 | 303 | 2.0 | 6.0 | 0.01 | 0.45 | 0.17 | 95 | 1013.4 |
| 20260507150557 | 54 | 47 | 0.0 | 4.0 | 0.02 | 0.45 | 0.17 | 95 | 1013.5 |
| 20260507145558 | 54 | 338 | 1.0 | 5.0 | 0.02 | 0.50 | 0.17 | 95 | 1013.4 |
| 20260507145058 | 54 | 337 | 2.0 | 5.0 | 0.02 | 0.50 | 0.17 | 94 | 1013.4 |
| 20260507144556 | 54 | 11 | 1.0 | 6.0 | 0.02 | 0.50 | 0.17 | 94 | 1013.3 |
| 20260507144059 | 54 | 306 | 2.0 | 6.0 | 0.03 | 0.50 | 0.17 | 94 | 1013.2 |
| 20260507143557 | 54 | 307 | 1.0 | 6.0 | 0.02 | 0.49 | 0.16 | 95 | 1013.2 |
| 20260507143058 | 54 | 317 | 2.0 | 6.0 | 0.02 | 0.49 | 0.16 | 94 | 1013.3 |
| 20260507142558 | 54 | 327 | 2.0 | 5.0 | 0.02 | 0.49 | 0.16 | 95 | 1013.2 |
| 20260507142057 | 53 | 329 | 1.0 | 6.0 | 0.02 | 0.49 | 0.16 | 94 | 1013.2 |
| 20260507141600 | 53 | 0 | 2.0 | 9.0 | 0.02 | 0.49 | 0.16 | 94 | 1013.3 |
| 20260507141058 | 53 | 312 | 3.0 | 9.0 | 0.02 | 0.49 | 0.16 | 94 | 1013.2 |
| 20260507140559 | 54 | 129 | 2.0 | 5.0 | 0.02 | 0.48 | 0.15 | 94 | 1013.2 |
| 20260507140107 | 53 | 311 | 0.0 | 5.0 | 0.02 | 0.48 | 0.15 | 94 | 1013.1 |
| 20260507135558 | 54 | 324 | 2.0 | 5.0 | 0.02 | 0.61 | 0.15 | 94 | 1013.1 |
| 20260507135058 | 54 | 328 | 1.0 | 5.0 | 0.02 | 0.61 | 0.15 | 94 | 1013.3 |
| 20260507134604 | 54 | 26 | 1.0 | 5.0 | 0.02 | 0.61 | 0.15 | 94 | 1013.1 |
| 20260507134057 | 54 | 304 | 1.0 | 5.0 | 0.01 | 0.60 | 0.14 | 94 | 1012.9 |
| 20260507133558 | 54 | 316 | 2.0 | 5.0 | 0.01 | 0.60 | 0.14 | 94 | 1012.9 |
| 20260507133109 | 54 | 322 | 1.0 | 4.0 | 0.02 | 0.60 | 0.14 | 94 | 1012.9 |
| 20260507132557 | 54 | 277 | 1.0 | 4.0 | 0.02 | 0.60 | 0.14 | 94 | 1012.9 |
| 20260507132057 | 54 | 336 | 1.0 | 3.0 | 0.02 | 0.60 | 0.14 | 94 | 1013.1 |
| 20260507131559 | 54 | 323 | 0.0 | 3.0 | 0.02 | 0.60 | 0.14 | 94 | 1013.1 |
| 20260507131057 | 54 | 0 | 1.0 | 3.0 | 0.02 | 0.60 | 0.14 | 94 | 1013.0 |
| 20260507130558 | 54 | 252 | 0.0 | 2.0 | 0.01 | 0.58 | 0.13 | 95 | 1013.2 |
| 20260507130108 | 54 | 0 | 0.0 | 5.0 | 0.01 | 0.58 | 0.13 | 95 | 1013.2 |
| 20260507125558 | 54 | 0 | 1.0 | 5.0 | 0.01 | 0.61 | 0.13 | 94 | 1013.1 |
| 20260507125059 | 54 | 0 | 1.0 | 4.0 | 0.01 | 0.61 | 0.13 | 94 | 1012.6 |
| 20260507124634 | 54 | 0 | 1.0 | 3.0 | 0.01 | 0.61 | 0.13 | 95 | 1012.6 |
| 20260507124058 | 54 | 350 | 0.0 | 3.0 | 0.01 | 0.61 | 0.13 | 95 | 1012.8 |
| 20260507123558 | 54 | 337 | 0.0 | 3.0 | 0.01 | 0.61 | 0.13 | 95 | 1012.8 |
| 20260507123101 | 54 | 0 | 1.0 | 3.0 | 0.00 | 0.60 | 0.12 | 94 | 1012.9 |
| 20260507122557 | 54 | 0 | 0.0 | 3.0 | 0.00 | 0.60 | 0.12 | 94 | 1012.6 |
| 20260507122057 | 54 | 277 | 0.0 | 3.0 | 0.00 | 0.60 | 0.12 | 94 | 1012.5 |
| 20260507121557 | 54 | 0 | 0.0 | 3.0 | 0.00 | 0.60 | 0.12 | 94 | 1012.7 |
| 20260507121059 | 54 | 0 | 0.0 | 3.0 | 0.00 | 0.60 | 0.12 | 94 | 1012.7 |
| 20260507120557 | 54 | 0 | 0.0 | 3.0 | 0.00 | 0.60 | 0.12 | 94 | 1012.8 |
| 20260507120109 | 54 | 0 | 0.0 | 3.0 | 0.00 | 0.60 | 0.12 | 94 | 1012.6 |
| 20260507115558 | 54 | 309 | 1.0 | 7.0 | 0.00 | 0.60 | 0.12 | 94 | 1012.1 |
| 20260507115101 | 54 | 317 | 2.0 | 7.0 | 0.00 | 0.60 | 0.12 | 94 | 1011.9 |
| 20260507114614 | 54 | 319 | 1.0 | 4.0 | 0.00 | 0.60 | 0.12 | 94 | 1012.0 |
| 20260507114058 | 54 | 327 | 1.0 | 4.0 | 0.00 | 0.60 | 0.12 | 94 | 1012.1 |
| 20260507113558 | 54 | 323 | 0.0 | 3.0 | 0.00 | 0.60 | 0.12 | 94 | 1012.3 |
| 20260507113108 | 54 | 0 | 0.0 | 2.0 | 0.01 | 0.60 | 0.12 | 94 | 1012.5 |
| 20260507112601 | 54 | 0 | 0.0 | 3.0 | 0.01 | 0.60 | 0.12 | 94 | 1012.3 |
| 20260507112058 | 54 | 0 | 0.0 | 4.0 | 0.01 | 0.60 | 0.12 | 94 | 1012.1 |
| 20260507111558 | 54 | 338 | 0.0 | 4.0 | 0.01 | 0.60 | 0.12 | 94 | 1012.1 |
| 20260507111058 | 54 | 26 | 1.0 | 3.0 | 0.01 | 0.60 | 0.12 | 94 | 1012.3 |
| 20260507110600 | 55 | 0 | 0.0 | 1.0 | 0.01 | 0.60 | 0.12 | 94 | 1012.4 |
| 20260507110110 | 55 | 0 | 0.0 | 1.0 | 0.01 | 0.60 | 0.12 | 94 | 1012.4 |
| 20260507105558 | 55 | 0 | 0.0 | 1.0 | 0.01 | 0.60 | 0.12 | 94 | 1012.1 |
| 20260507105101 | 55 | 0 | 0.0 | 1.0 | 0.01 | 0.60 | 0.12 | 94 | 1012.5 |
| 20260507104602 | 55 | 0 | 0.0 | 1.0 | 0.01 | 0.60 | 0.12 | 94 | 1011.9 |
| 20260507104059 | 55 | 0 | 0.0 | 1.0 | 0.01 | 0.60 | 0.12 | 94 | 1012.4 |
| 20260507103559 | 55 | 0 | 0.0 | 2.0 | 0.01 | 0.60 | 0.12 | 94 | 1012.4 |
| 20260507103103 | 55 | 0 | 0.0 | 2.0 | 0.01 | 0.58 | 0.11 | 94 | 1012.5 |
| 20260507102559 | 55 | 0 | 0.0 | 1.0 | 0.01 | 0.58 | 0.11 | 94 | 1012.3 |
| 20260507102059 | 55 | 0 | 0.0 | 1.0 | 0.01 | 0.58 | 0.11 | 94 | 1012.0 |
| 20260507101559 | 55 | 0 | 0.0 | 1.0 | 0.01 | 0.58 | 0.11 | 94 | 1012.2 |
| 20260507101058 | 55 | 184 | 0.0 | 2.0 | 0.01 | 0.58 | 0.11 | 94 | 1011.8 |
| 20260507100559 | 56 | 0 | 0.0 | 3.0 | 0.01 | 0.58 | 0.11 | 94 | 1011.6 |
| 20260507100058 | 56 | 0 | 1.0 | 3.0 | 0.01 | 0.58 | 0.11 | 94 | 1011.6 |
| 20260507095557 | 56 | 202 | 0.0 | 1.0 | 0.01 | 0.58 | 0.11 | 94 | 1011.4 |
| 20260507095056 | 56 | 0 | 0.0 | 1.0 | 0.01 | 0.58 | 0.11 | 94 | 1011.5 |
| 20260507094558 | 56 | 0 | 0.0 | 1.0 | 0.01 | 0.58 | 0.11 | 94 | 1011.6 |
| 20260507094056 | 56 | 0 | 0.0 | 1.0 | 0.01 | 0.58 | 0.11 | 94 | 1011.5 |
| 20260507093556 | 56 | 0 | 0.0 | 1.0 | 0.02 | 0.58 | 0.11 | 94 | 1011.5 |
| 20260507093057 | 56 | 0 | 0.0 | 1.0 | 0.02 | 0.58 | 0.10 | 94 | 1011.9 |
| 20260507092559 | 55 | 0 | 0.0 | 2.0 | 0.02 | 0.58 | 0.10 | 94 | 1011.8 |
| 20260507092100 | 55 | 0 | 0.0 | 2.0 | 0.02 | 0.58 | 0.10 | 94 | 1012.0 |
| 20260507091556 | 55 | 268 | 0.0 | 2.0 | 0.02 | 0.58 | 0.10 | 94 | 1011.8 |
| 20260507091057 | 56 | 0 | 0.0 | 2.0 | 0.03 | 0.58 | 0.10 | 94 | 1011.8 |
| 20260507090557 | 56 | 268 | 0.0 | 2.0 | 0.03 | 0.58 | 0.10 | 94 | 1011.6 |
| 20260507090105 | 56 | 0 | 0.0 | 2.0 | 0.03 | 0.58 | 0.10 | 94 | 1011.6 |
| 20260507085601 | 56 | 0 | 0.0 | 2.0 | 0.03 | 0.58 | 0.10 | 94 | 1011.6 |
| 20260507085100 | 56 | 0 | 0.0 | 2.0 | 0.03 | 0.58 | 0.10 | 94 | 1011.5 |
| 20260507084559 | 56 | 0 | 0.0 | 0.0 | 0.03 | 0.58 | 0.10 | 94 | 1011.6 |
| 20260507084058 | 56 | 0 | 0.0 | 0.0 | 0.03 | 0.58 | 0.10 | 94 | 1011.4 |
| 20260507083555 | 56 | 0 | 0.0 | 2.0 | 0.02 | 0.57 | 0.09 | 94 | 1011.5 |
| 20260507083057 | 56 | 0 | 0.0 | 2.0 | 0.01 | 0.56 | 0.08 | 94 | 1011.7 |
| 20260507082558 | 56 | 0 | 0.0 | 2.0 | 0.01 | 0.56 | 0.08 | 94 | 1011.8 |
| 20260507082058 | 56 | 0 | 0.0 | 2.0 | 0.01 | 0.56 | 0.08 | 94 | 1011.7 |
| 20260507081559 | 56 | 0 | 0.0 | 2.0 | 0.01 | 0.56 | 0.08 | 94 | 1011.7 |
| 20260507081059 | 56 | 0 | 0.0 | 0.0 | 0.00 | 0.55 | 0.07 | 94 | 1011.6 |
| 20260507080558 | 56 | 0 | 0.0 | 2.0 | 0.00 | 0.55 | 0.07 | 94 | 1011.5 |
| 20260507075600 | 56 | 0 | 0.0 | 3.0 | 0.00 | 0.55 | 0.07 | 94 | 1011.5 |
| 20260507075101 | 56 | 0 | 0.0 | 3.0 | 0.00 | 0.55 | 0.07 | 94 | 1011.6 |
| 20260507074612 | 56 | 0 | 0.0 | 3.0 | 0.00 | 0.55 | 0.07 | 94 | 1011.7 |
| 20260507074058 | 56 | 166 | 0.0 | 5.0 | 0.00 | 0.55 | 0.07 | 94 | 1011.4 |
| 20260507073558 | 56 | 0 | 1.0 | 5.0 | 0.00 | 0.55 | 0.07 | 94 | 1011.5 |
| 20260507073056 | 56 | 319 | 0.0 | 4.0 | 0.00 | 0.55 | 0.07 | 94 | 1011.3 |
| 20260507072559 | 56 | 327 | 1.0 | 6.0 | 0.00 | 0.55 | 0.07 | 94 | 1011.4 |
| 20260507072056 | 57 | 341 | 1.0 | 6.0 | 0.00 | 0.55 | 0.07 | 94 | 1011.5 |
| 20260507071557 | 57 | 211 | 2.0 | 6.0 | 0.00 | 0.55 | 0.07 | 94 | 1011.7 |
| 20260507071058 | 57 | 316 | 1.0 | 4.0 | 0.00 | 0.55 | 0.07 | 94 | 1011.7 |
| 20260507070558 | 57 | 302 | 0.0 | 9.0 | 0.00 | 0.55 | 0.07 | 94 | 1011.6 |
| 20260507070115 | 57 | 346 | 2.0 | 9.0 | 0.00 | 0.55 | 0.07 | 94 | 1011.6 |
| 20260507065600 | 57 | 360 | 2.0 | 12.0 | 0.00 | 0.56 | 0.07 | 93 | 1011.8 |
| 20260507065059 | 58 | 332 | 3.0 | 12.0 | 0.01 | 0.56 | 0.07 | 93 | 1011.7 |
| 20260507064605 | 59 | 327 | 1.0 | 6.0 | 0.01 | 0.56 | 0.07 | 94 | 1011.4 |
| 20260507064059 | 59 | 319 | 1.0 | 9.0 | 0.01 | 0.56 | 0.07 | 94 | 1011.6 |
| 20260507063601 | 59 | 306 | 2.0 | 9.0 | 0.01 | 0.56 | 0.07 | 94 | 1011.4 |
| 20260507063100 | 60 | 328 | 3.0 | 8.0 | 0.02 | 0.56 | 0.07 | 94 | 1011.4 |
| 20260507062559 | 60 | 328 | 1.0 | 5.0 | 0.05 | 0.56 | 0.07 | 94 | 1011.7 |
| 20260507062101 | 60 | 319 | 1.0 | 5.0 | 0.07 | 0.56 | 0.07 | 94 | 1011.6 |
| 20260507061556 | 60 | 330 | 1.0 | 4.0 | 0.07 | 0.56 | 0.07 | 94 | 1011.4 |
| 20260507061057 | 60 | 341 | 0.0 | 4.0 | 0.07 | 0.56 | 0.07 | 94 | 1011.5 |
| 20260507060602 | 60 | 298 | 1.0 | 7.0 | 0.07 | 0.56 | 0.07 | 94 | 1011.6 |
| 20260507060059 | 60 | 0 | 1.0 | 7.0 | 0.07 | 0.56 | 0.07 | 93 | 1011.8 |
| 20260507055558 | 61 | 309 | 2.0 | 5.0 | 0.07 | 0.56 | 0.07 | 93 | 1011.6 |
| 20260507055058 | 61 | 318 | 0.0 | 5.0 | 0.06 | 0.55 | 0.06 | 94 | 1011.9 |
| 20260507054557 | 62 | 294 | 1.0 | 5.0 | 0.06 | 0.55 | 0.06 | 94 | 1012.1 |
| 20260507054100 | 62 | 0 | 0.0 | 2.0 | 0.06 | 0.55 | 0.06 | 94 | 1012.2 |
| 20260507053555 | 62 | 98 | 1.0 | 2.0 | 0.06 | 0.55 | 0.06 | 94 | 1012.0 |
| 20260507053059 | 62 | 0 | 0.0 | 4.0 | 0.05 | 0.54 | 0.05 | 94 | 1012.0 |
| 20260507052555 | 62 | 0 | 1.0 | 4.0 | 0.02 | 0.51 | 0.02 | 94 | 1012.0 |
| 20260507052055 | 62 | 82 | 0.0 | 3.0 | 0.00 | 0.49 | 0.00 | 94 | 1012.6 |
| 20260507051602 | 62 | 0 | 0.0 | 3.0 | 0.00 | 0.49 | 0.00 | 94 | 1011.9 |
| 20260507051056 | 62 | 38 | 0.0 | 3.0 | 0.00 | 0.49 | 0.00 | 94 | 1012.1 |
| 20260507050556 | 62 | 0 | 1.0 | 3.0 | 0.00 | 0.49 | 0.00 | 94 | 1012.1 |
| 20260507050106 | 62 | 185 | 0.0 | 2.0 | 0.00 | 0.49 | 0.00 | 94 | 1012.3 |
| 20260507045558 | 62 | 0 | 0.0 | 2.0 | 0.00 | 0.49 | 0.00 | 94 | 1012.2 |
| 20260507045058 | 62 | 0 | 0.0 | 3.0 | 0.00 | 0.49 | 0.00 | 94 | 1012.0 |
| 20260507044559 | 62 | 185 | 0.0 | 3.0 | 0.00 | 0.49 | 0.00 | 94 | 1011.8 |
| 20260507044057 | 62 | 221 | 0.0 | 4.0 | 0.00 | 0.49 | 0.00 | 94 | 1011.9 |
| 20260507043557 | 62 | 0 | 0.0 | 6.0 | 0.00 | 0.49 | 0.00 | 94 | 1011.9 |
| 20260507043056 | 62 | 0 | 2.0 | 6.0 | 0.00 | 0.49 | 0.00 | 94 | 1012.0 |
| 20260507042558 | 62 | 175 | 1.0 | 3.0 | 0.00 | 0.49 | 0.00 | 94 | 1012.1 |
| 20260507042101 | 62 | 184 | 0.0 | 3.0 | 0.00 | 0.49 | 0.00 | 94 | 1012.4 |
| 20260507041558 | 62 | 0 | 0.0 | 3.0 | 0.00 | 0.49 | 0.00 | 94 | 1012.4 |
| 20260507041057 | 62 | 0 | 0.0 | 2.0 | 0.00 | 0.49 | 0.00 | 94 | 1012.2 |
| 20260507040558 | 62 | 0 | 0.0 | 3.0 | 0.01 | 0.49 | 0.00 | 94 | 1012.1 |
| 20260507040110 | 62 | 0 | 1.0 | 3.0 | 0.02 | 0.49 | 0.00 | 94 | 1012.0 |
| 20260507035557 | 62 | 195 | 0.0 | 3.0 | 0.03 | 0.49 | 0.49 | 94 | 1012.5 |
| 20260507035100 | 62 | 0 | 0.0 | 2.0 | 0.03 | 0.49 | 0.49 | 93 | 1012.8 |
| 20260507034609 | 62 | 0 | 0.0 | 2.0 | 0.03 | 0.49 | 0.49 | 93 | 1012.9 |
| 20260507034058 | 62 | 0 | 0.0 | 2.0 | 0.03 | 0.49 | 0.49 | 93 | 1012.9 |
| 20260507033558 | 62 | 5 | 0.0 | 2.0 | 0.03 | 0.49 | 0.49 | 93 | 1012.7 |
| 20260507033103 | 62 | 227 | 0.0 | 3.0 | 0.03 | 0.49 | 0.49 | 93 | 1012.6 |
| 20260507032557 | 62 | 0 | 0.0 | 3.0 | 0.03 | 0.49 | 0.49 | 93 | 1012.8 |
| 20260507032059 | 62 | 0 | 1.0 | 3.0 | 0.03 | 0.49 | 0.49 | 93 | 1012.8 |
| 20260507031613 | 62 | 0 | 0.0 | 3.0 | 0.03 | 0.49 | 0.49 | 93 | 1013.1 |
| 20260507031100 | 62 | 355 | 0.0 | 2.0 | 0.03 | 0.49 | 0.49 | 93 | 1013.0 |
| 20260507030558 | 62 | 268 | 0.0 | 3.0 | 0.02 | 0.48 | 0.48 | 93 | 1012.8 |
| 20260507030059 | 62 | 0 | 0.0 | 5.0 | 0.01 | 0.47 | 0.47 | 93 | 1013.2 |
| 20260507025559 | 62 | 0 | 0.0 | 5.0 | 0.00 | 0.46 | 0.46 | 93 | 1013.5 |
| 20260507025057 | 62 | 0 | 0.0 | 2.0 | 0.00 | 0.46 | 0.46 | 93 | 1013.4 |
| 20260507024558 | 63 | 0 | 0.0 | 2.0 | 0.00 | 0.46 | 0.46 | 93 | 1013.3 |
| 20260507024057 | 63 | 0 | 0.0 | 2.0 | 0.00 | 0.46 | 0.46 | 93 | 1013.3 |
| 20260507023557 | 63 | 0 | 0.0 | 2.0 | 0.00 | 0.46 | 0.46 | 93 | 1013.5 |
| 20260507023058 | 63 | 286 | 0.0 | 2.0 | 0.00 | 0.46 | 0.46 | 93 | 1013.2 |
| 20260507022557 | 63 | 286 | 0.0 | 2.0 | 0.00 | 0.46 | 0.46 | 93 | 1013.1 |
| 20260507022058 | 63 | 230 | 0.0 | 3.0 | 0.00 | 0.46 | 0.46 | 93 | 1013.2 |
| 20260507021556 | 63 | 229 | 0.0 | 3.0 | 0.01 | 0.46 | 0.46 | 93 | 1012.9 |
| 20260507021057 | 63 | 0 | 0.0 | 2.0 | 0.02 | 0.46 | 0.46 | 93 | 1012.4 |
| 20260507020600 | 63 | 0 | 0.0 | 2.0 | 0.03 | 0.46 | 0.46 | 93 | 1013.1 |
| 20260507020059 | 63 | 0 | 0.0 | 2.0 | 0.04 | 0.46 | 0.46 | 93 | 1012.9 |
| 20260507015557 | 63 | 0 | 0.0 | 1.0 | 0.05 | 0.46 | 0.46 | 93 | 1013.0 |
| 20260507015057 | 63 | 0 | 0.0 | 2.0 | 0.06 | 0.46 | 0.46 | 93 | 1013.1 |